EA3DKP Weather Reports


Display with metric or nautical units.
time (UTC)temp
F
wind
direction
speed
MPH
gust
MPH
rain 1hr
in
rain 24hr
in
rain mn
in
humidity
%
barometer
mb
20260504173057 66 360 1.0 0.0 0.00 0.00 0.00 82 1007.9
20260504171550 66 360 0.0 0.0 0.00 0.00 0.00 83 1008.0
20260504081519 68 243 2.0 0.0 0.00 0.00 0.00 77 1009.7
20260504044531 62 273 0.0 0.0 0.00 0.00 0.00 86 1009.9
20260504043042 62 273 1.0 0.0 0.00 0.00 0.00 86 1010.0
20260504041534 62 271 1.0 0.0 0.00 0.00 0.00 86 1010.1
20260504040027 62 273 0.0 0.0 0.00 0.00 0.00 86 1010.2
20260504034526 62 272 0.0 0.0 0.00 0.00 0.00 87 1010.4
20260504033028 62 274 0.0 0.0 0.00 0.00 0.00 87 1010.5
20260504031523 62 274 0.0 0.0 0.00 0.00 0.00 87 1010.6
20260504030021 62 274 0.0 0.0 0.00 0.00 0.00 87 1010.6
20260504024521 62 275 0.0 0.0 0.00 0.00 0.00 87 1010.8
20260504023008 62 275 0.0 0.0 0.00 0.00 0.00 87 1010.7
20260504021508 62 275 0.0 0.0 0.00 0.00 0.00 87 1011.1
20260504020007 62 275 0.0 0.0 0.00 0.00 0.00 87 1011.2
20260504014506 62 276 0.0 0.0 0.00 0.00 0.00 87 1011.1
20260504013005 62 276 0.0 0.0 0.00 0.00 0.00 87 1011.2
20260504011513 62 276 0.0 0.0 0.00 0.00 0.00 87 1011.2
20260504010004 62 275 0.0 0.0 0.00 0.00 0.00 87 1011.4
20260504004502 62 276 0.0 0.0 0.00 0.00 0.00 87 1011.4
20260504003047 62 277 1.0 0.0 0.00 0.00 0.00 87 1011.4
20260504001547 62 278 1.0 0.0 0.00 0.00 0.00 87 1011.6
20260504000045 62 271 0.0 0.0 0.00 0.00 0.00 87 1011.6
20260503234543 62 268 0.0 0.0 0.00 0.00 0.00 86 1011.8
20260503233046 62 267 0.0 0.0 0.00 0.00 0.00 86 1011.8
20260503230040 62 277 0.0 0.0 0.00 0.00 0.00 86 1012.3
20260503224538 62 280 1.0 0.0 0.00 0.00 0.00 85 1012.6
20260503223039 63 360 2.0 0.0 0.00 0.00 0.00 85 1012.7
20260503220039 63 256 1.0 0.0 0.00 0.00 0.00 84 1012.8
20260503214541 63 261 1.0 0.0 0.00 0.00 0.00 84 1012.9
20260503213038 63 360 1.0 0.0 0.00 0.00 0.00 83 1012.9
20260503210014 63 360 1.0 0.0 0.00 0.00 0.00 83 1013.3
20260503204518 63 277 1.0 0.0 0.00 0.00 0.00 83 1013.3
20260503203004 63 360 2.0 0.0 0.00 0.00 0.00 83 1013.4
20260503201600 63 267 2.0 0.0 0.00 0.00 0.00 83 1013.3
20260503194602 63 360 2.0 0.0 0.00 0.00 0.00 83 1012.8
20260503193056 63 272 3.0 0.0 0.00 0.00 0.00 83 1012.6
20260503191555 63 262 2.0 0.0 0.00 0.00 0.00 83 1012.5
20260503190055 63 271 2.0 0.0 0.00 0.00 0.00 83 1012.4
20260503184603 64 360 2.0 0.0 0.00 0.00 0.00 83 1012.4
20260503183041 63 265 4.0 0.0 0.00 0.00 0.00 82 1012.3
20260503181539 64 273 2.0 0.0 0.00 0.00 0.00 82 1012.4
20260503180046 64 360 3.0 0.0 0.00 0.00 0.00 82 1012.5
20260503174536 64 269 3.0 0.0 0.00 0.00 0.00 81 1012.5